EW6466 Weather Reports


Display with metric or nautical units.
time (UTC)temp
F
wind
direction
speed
MPH
gust
MPH
rain 1hr
in
rain 24hr
in
rain mn
in
humidity
%
barometer
mb
20260901104542 75 223 2.0 4.0 0.00 0.00 0.00 83 1013.4
20260901103040 75 222 0.0 5.0 0.00 0.00 0.00 83 1013.3
20260901101540 75 226 1.0 5.0 0.00 0.00 0.00 83 1013.4
20260901100039 75 226 1.0 5.0 0.00 0.00 0.00 82 1013.5
20260901094540 75 221 1.0 5.0 0.00 0.00 0.00 81 1013.6
20260901093036 76 229 1.0 9.0 0.00 0.00 0.00 80 1013.7
20260901091535 76 161 0.0 2.0 0.00 0.00 0.00 78 1013.6
20260901090033 76 159 2.0 4.0 0.00 0.00 0.00 77 1013.5
20260901084531 76 36 1.0 4.0 0.00 0.00 0.00 76 1013.5
20260901083030 77 224 2.0 10.0 0.00 0.00 0.00 75 1013.5
20260901081528 77 209 5.0 9.0 0.00 0.00 0.00 75 1013.5
20260901080027 77 226 4.0 9.0 0.00 0.00 0.00 74 1013.6
20260901074529 78 233 0.0 5.0 0.00 0.00 0.00 72 1013.5
20260901073024 78 227 2.0 9.0 0.00 0.00 0.00 71 1013.5
20260901071525 78 215 7.0 10.0 0.00 0.00 0.00 70 1013.6
20260901070023 79 211 6.0 11.0 0.00 0.00 0.00 69 1013.6
20260901064520 79 191 4.0 9.0 0.00 0.00 0.00 69 1013.6
20260901063013 80 169 7.0 12.0 0.00 0.00 0.00 68 1013.4
20260901061510 80 229 2.0 9.0 0.00 0.00 0.00 66 1013.5
20260901060011 81 107 3.0 10.0 0.00 0.00 0.00 66 1013.3
20260901054512 81 245 1.0 6.0 0.00 0.00 0.00 65 1013.1
20260901053004 81 26 4.0 11.0 0.00 0.00 0.00 65 1012.9
20260901051501 82 169 4.0 12.0 0.00 0.00 0.00 64 1012.8
20260901050058 82 234 2.0 11.0 0.00 0.00 0.00 62 1012.9
20260901044607 83 106 2.0 14.0 0.00 0.00 0.00 60 1012.9
20260901043056 83 86 3.0 12.0 0.00 0.00 0.00 58 1012.7
20260901041555 84 56 5.0 11.0 0.00 0.00 0.00 55 1012.7
20260901040110 85 142 4.0 12.0 0.00 0.00 0.00 53 1012.6
20260901034607 85 95 5.0 12.0 0.00 0.00 0.00 50 1012.3
20260901033054 85 26 3.0 8.0 0.00 0.00 0.00 49 1012.0
20260901031553 85 28 3.0 8.0 0.00 0.00 0.00 49 1011.7
20260901030053 85 32 4.0 6.0 0.00 0.00 0.00 49 1011.7
20260901024555 86 29 2.0 5.0 0.00 0.00 0.00 49 1011.5
20260901023104 86 26 3.0 8.0 0.00 0.00 0.00 49 1011.4
20260901021554 86 33 3.0 5.0 0.00 0.00 0.00 49 1011.2
20260901020051 87 29 3.0 8.0 0.00 0.00 0.00 49 1011.1
20260901014554 87 50 2.0 6.0 0.00 0.00 0.00 48 1011.0
20260901013050 88 54 2.0 5.0 0.00 0.00 0.00 47 1010.9
20260901011550 88 53 2.0 6.0 0.00 0.00 0.00 47 1010.8
20260901010050 89 19 3.0 9.0 0.00 0.00 0.00 46 1010.7
20260901004551 90 84 2.0 10.0 0.00 0.00 0.00 45 1010.6
20260901003048 90 153 2.0 9.0 0.00 0.00 0.00 42 1010.5
20260901001548 91 45 3.0 9.0 0.00 0.00 0.00 40 1010.4
20260901000047 91 64 3.0 9.0 0.00 0.00 0.00 40 1010.2
20260831234546 92 65 3.0 11.0 0.00 0.00 0.00 40 1010.3
20260831233045 92 51 3.0 9.0 0.00 0.00 0.00 40 1010.2
20260831231546 93 44 4.0 13.0 0.00 0.00 0.00 40 1010.1
20260831230046 93 171 3.0 11.0 0.00 0.00 0.00 41 1010.3
20260831224543 92 90 3.0 10.0 0.00 0.00 0.00 42 1010.3
20260831223043 93 52 3.0 12.0 0.00 0.00 0.00 41 1010.4
20260831221544 94 117 5.0 9.0 0.00 0.00 0.00 41 1010.4
20260831220046 93 90 4.0 11.0 0.00 0.00 0.00 42 1010.6
20260831214539 93 40 7.0 19.0 0.00 0.00 0.00 42 1010.7
20260831213038 94 155 9.0 19.0 0.00 0.00 0.00 40 1010.9
20260831211539 93 304 3.0 13.0 0.00 0.00 0.00 41 1011.0
20260831210034 93 207 6.0 14.0 0.00 0.00 0.00 41 1011.2
20260831204532 94 130 4.0 10.0 0.00 0.00 0.00 42 1011.3
20260831203030 95 117 3.0 14.0 0.00 0.00 0.00 40 1011.8
20260831201529 97 76 4.0 10.0 0.00 0.00 0.00 38 1011.8
20260831200039 95 198 5.0 12.0 0.00 0.00 0.00 40 1012.1
20260831194523 97 178 7.0 12.0 0.00 0.00 0.00 38 1012.5
20260831193034 95 176 4.0 8.0 0.00 0.00 0.00 40 1012.6
20260831191528 95 165 4.0 12.0 0.00 0.00 0.00 39 1012.7
20260831190020 95 227 4.0 16.0 0.00 0.00 0.00 42 1012.7
20260831184523 96 207 2.0 14.0 0.00 0.00 0.00 41 1012.9
20260831183018 96 184 2.0 8.0 0.00 0.00 0.00 41 1013.2
20260831181517 95 207 4.0 10.0 0.00 0.00 0.00 44 1013.2
20260831180024 94 196 5.0 15.0 0.00 0.00 0.00 45 1013.5
20260831174520 94 121 4.0 9.0 0.00 0.00 0.00 45 1013.5
20260831173009 93 170 2.0 8.0 0.00 0.00 0.00 47 1013.6
20260831171507 91 175 3.0 9.0 0.00 0.00 0.00 50 1013.7
20260831170003 92 188 3.0 9.0 0.00 0.00 0.00 50 1013.9
20260831164620 90 148 5.0 12.0 0.00 0.00 0.00 54 1013.9
20260831163058 90 198 4.0 11.0 0.00 0.00 0.00 54 1014.0
20260831161556 89 200 7.0 10.0 0.00 0.00 0.00 56 1014.1
20260831160051 88 173 4.0 13.0 0.00 0.00 0.00 59 1014.0
20260831154549 87 188 5.0 10.0 0.00 0.00 0.00 62 1013.8
20260831153044 85 185 4.0 11.0 0.00 0.00 0.00 65 1013.8
20260831151642 84 142 1.0 10.0 0.00 0.00 0.00 66 1013.9
20260831150044 83 199 4.0 9.0 0.00 0.00 0.00 69 1013.9
20260831144537 82 203 3.0 9.0 0.00 0.00 0.00 70 1013.7
20260831143037 81 174 4.0 9.0 0.00 0.00 0.00 72 1013.9
20260831141532 80 192 3.0 10.0 0.00 0.00 0.00 75 1014.0
20260831140031 79 174 1.0 6.0 0.00 0.00 0.00 78 1013.8
20260831134529 77 128 3.0 8.0 0.00 0.00 0.00 81 1013.7
20260831133027 76 67 3.0 6.0 0.00 0.00 0.00 84 1013.5
20260831131527 75 169 3.0 6.0 0.00 0.00 0.00 85 1013.5
20260831130026 74 169 0.0 2.0 0.00 0.00 0.00 85 1013.5
20260831124525 74 169 0.0 5.0 0.00 0.00 0.00 85 1013.4
20260831123025 74 171 0.0 4.0 0.00 0.00 0.00 85 1013.3
20260831121525 74 168 2.0 6.0 0.00 0.00 0.00 85 1013.2
20260831120035 74 184 4.0 9.0 0.00 0.00 0.00 85 1013.2
20260831114530 74 229 1.0 6.0 0.00 0.00 0.00 85 1013.1
20260831113020 75 218 3.0 8.0 0.00 0.00 0.00 84 1013.0
20260831111519 75 180 2.0 6.0 0.00 0.00 0.00 84 1013.0